User: anonymous   Login
Location: Deer Lodge Site
(39.6809°N, 119.9392°W)
Time: 01:59:33
(UTC-07:00)
Language:

CZ-4C R/B - Orbit

View from above orbital plane
View from above orbital plane
View from above satellite
View from above satellite

Ground track
Ground track

The orbit data is extracted from the following two-line orbital elements,

1 36416U 10009D   18169.90266924 -.00000128 +00000-0 -18070-4 0  9996
2 36416 063.4342 000.4004 0422826 355.6271 004.1117 13.69533556414431
Epoch (UTC): 18 June 2018 21:39:50
Eccentricity: 0.0422826
inclination: 63.4342°
perigee height: 689 km
apogee height: 1313 km
right ascension of ascending node: 0.4004°
argument of perigee: 355.6271°
revolutions per day: 13.69533556
mean anomaly at epoch: 4.1117°
orbit number at epoch: 41443

The dashed part of the orbit path shows where the satellite is in the earth's shadow,  

DLR